[[{"header":{"parameterUnit":"m.s-1","parameterCategory":1,"la1":30.2991,"la2":30.254,"lo1":-89.0895,"lo2":-89.0444,"dy":0.0017,"dx":0.0017,"nx":28,"ny":28,"refTime":"2024-06-01T03:00:00:Z","depth":0,"parameterNumber":2,"parameterNumberName":"U-component_of_WINDS"},"data":[0,0,0,0,0,0,0,0,0,0,0,0,0,0,0,0,0,0,0,0,0,0,0,0,0,0,0,0,0,0,0,0,0,0,0,0,0,0,0,0,0,0,0,0,0,0,0,0,0,0,0,0,0,0,0,0,0,0,-1.9186,-1.9186,0,-1.9248,-1.9248,-1.9249,-1.9311,-1.9312,-1.9313,-1.9314,-1.9376,-1.9376,-1.9377,0,0,0,0,0,0,0,0,0,0,0,0,0,-1.9118,-1.9119,-1.9185,-1.9186,-1.9187,-1.9248,-1.9248,-1.9249,-1.9311,-1.9312,-1.9313,-1.9314,-1.9375,-1.9376,-1.9377,0,0,0,0,0,0,0,0,0,0,0,0,0,-1.916,-1.9119,-1.9185,-1.9225,-1.923,-1.9247,-1.9248,-1.925,-1.9311,-1.9312,-1.9314,-1.9315,-1.9375,-1.9376,-1.9377,-1.936,0,0,-1.9381,-1.9382,0,0,0,0,0,0,0,0,-1.9158,-1.9163,-1.9219,-1.9223,-1.9227,-1.9273,-1.9247,-1.9287,-1.9311,-1.928,-1.9314,-1.9315,-1.934,-1.9345,-1.9353,-1.9363,-1.9366,-1.9381,-1.9382,-1.9383,-1.9383,0,0,0,0,0,0,0,-1.9155,-1.916,-1.921,-1.9219,-1.9225,-1.9239,-1.9247,-1.9255,-1.9302,-1.9283,-1.9288,-1.9294,-1.9343,-1.9352,-1.9355,-1.9367,-1.9381,-1.9383,-1.9383,-1.9384,-1.9364,-1.9362,0,0,0,0,0,0,-1.9146,-1.9157,-1.9208,-1.9212,-1.9195,-1.9239,-1.9248,-1.9257,-1.9302,-1.9311,-1.9293,-1.9297,-1.9349,-1.9354,-1.9358,-1.934,-1.9383,-1.9384,-1.9385,-1.9365,-1.9363,-1.9362,0,0,0,0,0,0,-1.9144,-1.915,-1.9206,-1.9186,-1.9194,-1.9239,-1.9249,-1.9258,-1.9267,-1.931,-1.9319,-1.9294,-1.935,-1.9356,-1.9359,-1.9343,-1.9385,-1.9386,-1.9366,-1.9364,-1.9363,-1.9304,0,0,0,0,0,0,-1.9142,-1.9149,-1.9144,-1.9185,-1.9195,-1.9207,-1.9248,-1.9258,-1.9269,-1.9275,-1.9313,-1.9321,-1.9352,-1.9357,-1.936,-1.9345,-1.9387,-1.9368,-1.9365,-1.9363,-1.9307,-1.93,-1.9293,0,0,0,0,0,-1.9139,-1.9125,-1.9143,-1.9149,-1.9189,-1.9206,-1.9211,-1.9248,-1.9268,-1.9262,-1.929,-1.9319,-1.9344,-1.9356,-1.9361,-1.9346,-1.9369,-1.9366,-1.9363,-1.931,-1.9301,-1.9294,0,0,0,0,0,0,-1.908,-1.9131,-1.9152,-1.915,-1.9173,-1.9216,-1.9211,-1.9237,-1.9254,-1.9259,-1.9303,-1.9311,-1.9309,-1.9328,-1.9341,-1.9331,-1.9361,-1.9358,-1.9319,-1.931,-1.9304,-1.9299,-1.9388,0,0,0,0,0,-1.9066,-1.9076,-1.912,-1.9114,-1.9124,-1.9165,-1.9174,-1.92,-1.9225,-1.9235,-1.9263,-1.9285,-1.9298,-1.9305,-1.9319,-1.931,-1.9319,-1.9302,-1.9295,-1.9289,-1.9287,-1.9282,-1.9274,-1.9352,-1.9352,-1.9352,0,0,-1.9039,-1.9068,-1.9071,-1.9103,-1.9123,-1.9131,-1.9173,-1.918,-1.9186,-1.9236,-1.924,-1.9261,-1.9289,-1.9285,-1.9285,-1.9301,-1.9267,-1.9285,-1.928,-1.9281,-1.9278,-1.927,-1.9264,-1.935,-1.935,-1.9351,0,0,-1.8993,-1.9016,-1.9013,-1.9033,-1.9064,-1.9091,-1.909,-1.9128,-1.9144,-1.9149,-1.9187,-1.9194,-1.9215,-1.9233,-1.9245,-1.9203,-1.9231,-1.9206,-1.9171,-1.9165,-1.9159,-1.9154,-1.9138,-1.9132,-1.9204,-1.9204,-1.9203,0,-1.8955,-1.8969,-1.9008,-1.9013,-1.9025,-1.907,-1.9067,-1.9084,-1.9117,-1.9124,-1.9141,-1.9168,-1.919,-1.9191,-1.918,-1.9189,-1.9188,-1.9202,-1.9157,-1.9152,-1.9148,-1.9133,-1.9127,-1.92,-1.9201,-1.9201,-1.9201,0,-1.892,-1.8929,-1.8923,-1.8954,-1.8965,-1.8966,-1.9004,-1.901,-1.9035,-1.9059,-1.9063,-1.9091,-1.9111,-1.9113,-1.9137,-1.9116,-1.9125,-1.9149,-1.918,-1.9137,-1.9124,-1.9118,-1.9196,-1.9197,-1.9198,-1.9199,0,0,-1.884,-1.8891,-1.8888,-1.8902,-1.8939,-1.8946,-1.8947,-1.8967,-1.8971,-1.8992,-1.8994,-1.901,-1.9032,-1.9045,-1.9071,-1.9066,-1.903,-1.9091,-1.9092,-1.9078,-1.9007,-1.8989,-1.8982,-1.9048,-1.9048,-1.9047,-1.9005,0,-1.88,-1.8806,-1.8841,-1.8836,-1.8844,-1.8886,-1.8887,-1.8909,-1.8931,-1.894,-1.8965,-1.8975,-1.9004,-1.9012,-1.9009,-1.9035,-1.9016,-1.9039,-1.9049,-1.9049,-1.9041,-1.8975,-1.8957,-1.8916,-1.9,-1.8999,-1.8999,0,-1.8754,-1.8772,-1.8768,-1.8803,-1.8808,-1.8808,-1.8828,-1.8837,-1.8861,-1.8878,-1.8891,-1.8921,-1.8923,-1.8952,-1.8955,-1.8969,-1.8976,-1.8988,-1.8988,-1.899,-1.9021,-1.8976,-1.8904,-1.8897,-1.8991,-1.8992,-1.8992,0,-1.8695,-1.8718,-1.8719,-1.8729,-1.877,-1.8769,-1.8786,-1.8812,-1.882,-1.8837,-1.8843,-1.886,-1.8869,-1.8881,-1.8913,-1.8931,-1.8912,-1.8944,-1.8925,-1.8924,-1.892,-1.892,-1.8847,-1.8924,-1.8924,-1.8924,-1.8924,0,-1.8647,-1.8643,-1.8693,-1.8693,-1.8689,-1.8728,-1.8723,-1.8743,-1.8765,-1.8769,-1.8806,-1.8809,-1.8852,-1.8859,-1.8884,-1.8883,-1.8887,-1.8899,-1.8906,-1.8896,-1.8894,-1.8901,-1.8904,-1.8922,-1.8923,-1.8923,-1.8923,0,-1.8581,-1.8614,-1.8617,-1.8655,-1.8664,-1.8659,-1.8691,-1.8692,-1.8716,-1.872,-1.8724,-1.8761,-1.8771,-1.8805,-1.8823,-1.884,-1.883,-1.8843,-1.8822,-1.8826,-1.8806,-1.8807,-1.8735,-1.8727,-1.8808,-1.8808,-1.8807,0,-1.8548,-1.8546,-1.8583,-1.8588,-1.8603,-1.8612,-1.8621,-1.8658,-1.8666,-1.8692,-1.869,-1.8703,-1.8716,-1.873,-1.8758,-1.8772,-1.8785,-1.8759,-1.8788,-1.8777,-1.8784,-1.8784,-1.8784,-1.8753,-1.8752,-1.8751,-1.875,0,-1.8487,-1.8502,-1.8515,-1.8531,-1.8541,-1.8556,-1.8573,-1.8575,-1.8617,-1.8623,-1.8634,-1.8644,-1.8662,-1.8674,-1.8692,-1.8709,-1.8736,-1.8741,-1.8737,-1.8727,-1.8715,-1.8721,-1.8805,-1.8743,-1.8743,-1.8744,-1.8744,-1.8745,-1.8436,-1.8436,-1.8461,-1.8472,-1.8489,-1.8503,-1.8506,-1.853,-1.854,-1.8558,-1.8578,-1.8586,-1.8609,-1.8636,-1.865,-1.8656,-1.8671,-1.8666,-1.8665,-1.8663,-1.8658,-1.8713,-1.8659,-1.866,-1.866,-1.866,-1.866,0,-1.8376,-1.8394,-1.8404,-1.8426,-1.8435,-1.8459,-1.8479,-1.8484,-1.8491,-1.851,-1.8521,-1.8532,-1.8544,-1.8572,-1.8586,-1.8585,-1.8598,-1.8588,-1.8588,-1.8591,-1.8644,-1.8645,-1.8577,-1.8577,-1.8577,-1.8577,-1.8577,-1.8577,-1.8346,-1.8346,-1.8364,-1.8372,-1.839,-1.8398,-1.8407,-1.842,-1.8435,-1.8446,-1.8456,-1.8474,-1.8496,-1.8512,-1.8523,-1.853,-1.8534,-1.8519,-1.8531,-1.858,-1.8588,-1.8595,-1.8597,-1.8519,-1.8519,-1.8478,-1.8477,-1.8477]},{"header":{"parameterUnit":"m.s-1","parameterCategory":1,"la1":30.2991,"la2":30.254,"lo1":-89.0895,"lo2":-89.0444,"dy":0.0017,"dx":0.0017,"nx":28,"ny":28,"refTime":"2024-06-01T03:00:00:Z","depth":0,"parameterNumber":3,"parameterNumberName":"V-component_of_WINDS"},"data":[0,0,0,0,0,0,0,0,0,0,0,0,0,0,0,0,0,0,0,0,0,0,0,0,0,0,0,0,0,0,0,0,0,0,0,0,0,0,0,0,0,0,0,0,0,0,0,0,0,0,0,0,0,0,0,0,0,0,5.281,5.2812,0,5.2951,5.2953,5.2954,5.29,5.2897,5.2894,5.2891,5.3032,5.3039,5.3046,0,0,0,0,0,0,0,0,0,0,0,0,0,5.2491,5.2498,5.281,5.2812,5.2814,5.2951,5.2953,5.2955,5.2901,5.2897,5.2893,5.2889,5.303,5.3038,5.3046,0,0,0,0,0,0,0,0,0,0,0,0,0,5.2631,5.25,5.281,5.2803,5.2804,5.295,5.2953,5.2955,5.2902,5.2897,5.2892,5.2887,5.3028,5.3037,5.3048,5.3208,0,0,5.3079,5.3083,0,0,0,0,0,0,0,0,5.2623,5.2643,5.2802,5.2804,5.2805,5.2903,5.2892,5.304,5.2903,5.2865,5.2891,5.2885,5.2993,5.3006,5.3043,5.3214,5.322,5.308,5.3086,5.309,5.3093,0,0,0,0,0,0,0,5.2613,5.2636,5.2866,5.2805,5.2807,5.2793,5.2807,5.292,5.2954,5.2868,5.2864,5.2882,5.2993,5.3033,5.3046,5.3222,5.3079,5.3088,5.3095,5.3099,5.3532,5.3537,0,0,0,0,0,0,5.2604,5.2629,5.2861,5.287,5.27,5.2802,5.2818,5.2877,5.2953,5.296,5.2886,5.2879,5.3018,5.3034,5.3051,5.3243,5.309,5.31,5.3105,5.3527,5.3533,5.3539,0,0,0,0,0,0,5.2597,5.2625,5.2855,5.2748,5.2777,5.2813,5.2879,5.2882,5.2922,5.2967,5.2972,5.2921,5.3015,5.3036,5.3169,5.3247,5.3104,5.3113,5.352,5.3529,5.3536,5.3629,0,0,0,0,0,0,5.2588,5.2623,5.2685,5.275,5.2783,5.2973,5.2884,5.2888,5.294,5.2932,5.3001,5.3008,5.3013,5.3154,5.3179,5.3259,5.3121,5.3513,5.3524,5.3534,5.3619,5.3639,5.3657,0,0,0,0,0,5.2577,5.2705,5.2688,5.2716,5.2861,5.2977,5.2996,5.3,5.2947,5.3009,5.3037,5.3005,5.3235,5.3168,5.3196,5.328,5.3508,5.3521,5.3533,5.3611,5.3635,5.3656,0,0,0,0,0,0,5.2646,5.2713,5.2695,5.2848,5.2908,5.2968,5.3046,5.3026,5.3101,5.309,5.3091,5.3107,5.3244,5.3275,5.32,5.3438,5.3363,5.3382,5.3413,5.3437,5.3455,5.3445,5.313,0,0,0,0,0,5.268,5.277,5.2823,5.2952,5.2983,5.301,5.3061,5.3059,5.312,5.3145,5.3183,5.3243,5.3328,5.3384,5.3465,5.3624,5.3638,5.3695,5.3713,5.3729,5.3744,5.383,5.3856,5.3579,5.3579,5.3579,0,0,5.2749,5.2796,5.2853,5.2968,5.3013,5.3106,5.3031,5.3132,5.32,5.316,5.3288,5.3318,5.3385,5.3531,5.3597,5.3561,5.3824,5.3744,5.3756,5.3763,5.3845,5.3871,5.3895,5.3587,5.3586,5.3584,0,0,5.2922,5.2968,5.3081,5.3128,5.3199,5.3216,5.3243,5.3307,5.3326,5.3455,5.3426,5.3507,5.3654,5.3703,5.3747,5.394,5.3913,5.3966,5.4064,5.4147,5.4169,5.4188,5.4257,5.4282,5.3982,5.3982,5.3982,0,5.2999,5.3138,5.3141,5.3245,5.3296,5.3264,5.3378,5.3424,5.3517,5.3553,5.3511,5.3696,5.3738,5.3896,5.3943,5.398,5.401,5.3958,5.4166,5.4185,5.4203,5.4269,5.4295,5.3988,5.3987,5.3987,5.3986,0,5.3229,5.3325,5.3408,5.35,5.356,5.3669,5.3688,5.3748,5.3741,5.3763,5.3894,5.3944,5.4035,5.4072,5.4066,5.4229,5.4205,5.4165,5.4089,5.4236,5.4297,5.4322,5.3996,5.3994,5.3992,5.3991,0,0,5.3449,5.3542,5.3572,5.3614,5.3689,5.3764,5.3871,5.396,5.4012,5.4078,5.4167,5.4293,5.4256,5.4306,5.4306,5.4379,5.4528,5.433,5.4332,5.4365,5.4711,5.474,5.4769,5.4512,5.4516,5.452,5.4705,0,5.3628,5.3816,5.3822,5.3994,5.4083,5.4055,5.4148,5.4204,5.4227,5.4305,5.433,5.4419,5.4365,5.4395,5.4466,5.4495,5.4598,5.4482,5.4594,5.4598,5.4578,5.4801,5.4832,5.5004,5.4729,5.4733,5.4736,0,5.3862,5.3936,5.4117,5.418,5.4218,5.4301,5.4384,5.446,5.4523,5.4534,5.4591,5.4579,5.4688,5.4609,5.4758,5.468,5.4726,5.4747,5.4754,5.4764,5.4675,5.4817,5.5059,5.5085,5.4774,5.4771,5.4768,0,5.4004,5.4149,5.4276,5.4312,5.4389,5.4449,5.4483,5.4542,5.4595,5.4668,5.4702,5.4786,5.4832,5.4897,5.4908,5.485,5.5058,5.498,5.5069,5.5069,5.5114,5.5111,5.5367,5.5145,5.5144,5.5144,5.5143,0,5.4203,5.4315,5.4341,5.4419,5.4543,5.4549,5.4671,5.4701,5.4754,5.4837,5.4817,5.4895,5.4905,5.4986,5.4995,5.5117,5.5138,5.515,5.5151,5.5152,5.515,5.5182,5.517,5.5151,5.5149,5.5148,5.5147,0,5.4383,5.4405,5.4541,5.4604,5.4622,5.4711,5.4763,5.4838,5.4859,5.4964,5.4989,5.5022,5.5116,5.5133,5.5244,5.525,5.5396,5.5385,5.5375,5.5374,5.5462,5.5453,5.5747,5.5786,5.5538,5.5541,5.5543,0,5.4509,5.4594,5.4666,5.472,5.4758,5.4846,5.4901,5.491,5.4968,5.5046,5.5111,5.5203,5.5277,5.5429,5.5462,5.5547,5.5538,5.5635,5.555,5.5548,5.5539,5.5534,5.5542,5.5651,5.5653,5.5655,5.5657,0,5.4729,5.4736,5.4816,5.4901,5.4967,5.5034,5.5097,5.5143,5.516,5.5226,5.5322,5.538,5.5493,5.5585,5.567,5.5704,5.5684,5.5684,5.5709,5.571,5.5701,5.5707,5.5419,5.5677,5.5675,5.5673,5.5672,5.5672,5.4885,5.496,5.5022,5.5112,5.5161,5.5221,5.5294,5.5324,5.5405,5.5499,5.5499,5.5604,5.5665,5.5777,5.5817,5.5899,5.5868,5.5905,5.5914,5.5923,5.5931,5.5688,5.5915,5.5914,5.5914,5.5913,5.5913,0,5.5105,5.5143,5.5226,5.5316,5.5387,5.5362,5.5431,5.5492,5.5585,5.5644,5.5718,5.5828,5.5917,5.5958,5.6045,5.6103,5.6096,5.6126,5.6122,5.613,5.5954,5.5923,5.613,5.613,5.613,5.613,5.613,5.613,5.5227,5.5352,5.5366,5.5515,5.5552,5.5656,5.5698,5.5752,5.5799,5.5924,5.5998,5.6024,5.6076,5.6167,5.6248,5.6257,5.629,5.6325,5.633,5.6164,5.6142,5.6121,5.6093,5.6332,5.6332,5.6499,5.65,5.6502]}]]